#timestamp,LO_Frequency,Hit,StdDev 
1629709215.9,286047007.3,N
1629709235.7,286047008.8,N
1629709255.6,286047007.8,N
1629709275.4,286047006.3,N
1629709295.2,286047008.7,N
1629709315.1,286047009.0,N
1629709316.0,286047009.0,N
1629709335.8,286047003.3,N
1629709355.7,286047007.4,N
1629709375.5,286047006.6,N
1629709395.3,286047006.3,N
1629709415.2,286047004.3,N
1629709435.0,286046998.8,N
1629709435.9,286046998.8,N
1629709455.8,286046998.3,N
1629709475.6,286046998.4,N
1629709495.4,286046995.4,N
1629709515.3,286046998.5,N
1629709535.1,286046994.0,N
1629709555.8,286046993.3,N
1629709575.7,286046993.7,N
1629709595.5,286046996.3,N
1629709615.4,286046993.7,N
1629709635.2,286046998.4,N
1629709655.0,286047003.6,N
1629709655.9,286047003.6,N
1629709675.8,286047005.0,N
1629709695.6,286047003.2,N
1629709715.5,286046998.9,N
1629709735.3,286046999.4,N
1629709755.1,286047004.9,N
1629709775.9,286047010.6,N
1629709795.7,286047006.2,N
1629709815.5,286047001.9,N
1629709835.4,286047003.5,N
1629709855.2,286047004.1,N
1629709875.1,286047007.2,N
1629709876.0,286047007.2,N
1629709895.8,286047008.7,N
1629709915.6,286047009.6,N
1629709935.5,286047003.1,N
1629709955.3,286047004.0,N
1629709975.2,286047005.9,N
1629709995.9,286047004.1,N
1629710015.7,286047002.5,N
1629710035.6,286046999.0,N
1629710055.4,286047004.0,N
1629710075.2,286047004.3,N
1629710095.1,286047010.8,N
1629710096.0,286047010.8,N
1629710115.8,286047011.0,N
1629710135.7,286047005.6,N
1629710155.5,286047002.4,N
1629710175.3,286047004.4,N
1629710195.2,286047004.3,N
1629710215.0,286046999.8,N
1629710215.9,286046999.8,N
1629710235.8,286047003.8,N
1629710255.6,286047006.8,N
1629710275.4,286047002.9,N
1629710295.3,286047005.8,N
1629710315.1,286047007.7,N
1629710335.8,286047004.5,N
1629710355.7,286046999.4,N
1629710375.5,286046995.7,N
1629710395.4,286047001.1,N
1629710415.2,286047004.2,N
1629710435.0,286046998.8,N
1629710435.9,286046998.8,N
1629710455.8,286046997.1,N
1629710475.6,286046998.0,N
1629710495.5,286046996.3,N
1629710515.3,286046994.9,N
1629710535.1,286046998.4,N
1629710555.9,286046998.7,N
1629710575.7,286047002.1,N
1629710595.6,286047004.1,N
1629710615.4,286047005.3,N
1629710635.2,286047010.6,N
1629710655.1,286047006.2,N
1629710656.0,286047006.2,N
1629710675.8,286047003.2,N
1629710695.6,286047008.5,N
1629710715.5,286047010.4,N
1629710735.3,286047008.7,N
1629710755.2,286047006.4,N
1629710775.9,286047001.7,N
1629710795.7,286047002.3,N
1629710815.6,286047006.4,N
1629710835.4,286047013.1,N
1629710855.3,286047011.5,N
1629710875.1,286047008.0,N
1629710876.0,286047008.0,N
1629710895.8,286047008.1,N
1629710915.7,286047003.5,N
1629710935.5,286046998.4,N
1629710955.3,286046996.2,N
1629710975.2,286046992.7,N
1629710995.0,286046994.6,N
1629710995.9,286046994.6,N
1629711015.8,286046999.6,N
1629711035.6,286046997.7,N
1629711055.4,286046996.8,N
1629711075.3,286046999.0,N
1629711095.1,286047000.3,N
1629711115.9,286046997.5,N
1629711135.7,286046997.3,N
1629711155.5,286047000.0,N
1629711175.4,286047000.1,N
1629711195.2,286046993.4,N
1629711215.0,286046990.4,N
1629711215.9,286046990.4,N
1629711235.8,286046994.2,N
1629711255.6,286046999.3,N
1629711275.5,286046999.8,N
1629711295.3,286046993.5,N
1629711315.1,286046992.9,N
1629711335.9,286046992.4,N
1629711355.7,286046999.4,N
1629711375.5,286046998.1,N
1629711395.4,286046994.0,N
1629711415.2,286046995.7,N
1629711435.1,286047000.9,N
1629711436.0,286047000.9,N
1629711455.8,286046999.6,N
1629711475.6,286046992.2,N
1629711495.5,286046989.9,Y
1629711515.3,286046996.0,P
1629711535.1,286046997.6,P
1629711555.9,286047002.8,P
1629711575.7,286046999.4,N
1629711595.6,286046998.2,N
1629711615.4,286047000.0,N
1629711635.2,286047004.3,N
1629711655.1,286047005.1,N
1629711656.0,286047005.1,N
1629711675.8,286047009.5,N
1629711695.7,286047015.3,Y
1629711715.5,286047008.9,P
1629711735.3,286047010.1,N
1629711755.2,286047008.1,N
1629711775.9,286047004.5,N
1629711795.7,286047004.0,N
1629711815.6,286046997.5,N
1629711835.4,286046996.3,N
1629711855.2,286046992.6,N
1629711875.1,286046990.2,N
1629711876.0,286046990.2,N
1629711895.8,286046996.0,N
1629711915.7,286047000.0,N
1629711935.5,286047002.3,N
1629711955.3,286047001.5,N
1629711975.2,286047009.2,N
1629711995.0,286047001.9,N
1629711995.9,286047001.9,N
1629712015.7,286047000.6,N
1629712035.6,286047004.3,N
1629712055.4,286047004.3,N
1629712075.3,286047002.4,N
1629712095.1,286046995.1,N
1629712096.0,286046995.1,N
1629712115.8,286046999.1,N
1629712135.2,286047001.4,N
1629712155.1,286047002.9,N
1629712156.0,286047002.9,N
1629712175.8,286047002.2,N
1629712195.6,286047001.4,N
1629712215.5,286047007.6,N
1629712235.3,286047009.2,N
1629712255.2,286047007.3,N
1629712275.9,286047012.3,N
1629712295.7,286047016.8,Y
1629712315.6,286047007.3,P
1629712335.4,286047001.9,N
1629712355.3,286047005.1,N
1629712375.1,286047004.8,N
1629712395.8,286047004.7,N
1629712415.7,286047003.1,N
1629712435.5,286047000.5,N
1629712455.4,286046994.2,N
1629712475.2,286047000.7,N
1629712495.0,286047003.1,N
1629712495.9,286047003.1,N
1629712515.8,286047007.3,N
1629712535.6,286047005.5,N
1629712555.4,286047005.8,N
1629712575.3,286047006.2,N
1629712595.1,286047009.3,N
1629712615.9,286047013.6,Y
1629712635.7,286047002.6,P
1629712655.5,286046999.0,N
1629712675.4,286046997.0,N
1629712695.2,286046995.6,N
1629712715.1,286047001.1,N
1629712716.0,286047001.1,N
1629712735.8,286047000.4,N
1629712755.6,286046995.7,N
1629712775.5,286046995.6,N
1629712795.3,286046996.1,N
